Location: Newark
(52.4787°S, 179.0532°W)
Time: 13:06:47
(UTC+00:00)

Oscar 11 - Visible Passes

Search period start: 16 December 2019 00:00
Search period end: 26 December 2019 00:00
Orbit: 612 x 626 km, 97.6° (Epoch: 15 December)

Date Brightness Start Highest point End Pass type
(mag) Time Alt. Az. Time Alt. Az. Time Alt. Az.
17 Dec 10.4 09:03:29 10° SSW 09:05:42 14° SW 09:07:54 10° W visible
18 Dec 10.9 09:22:01 10° SW 09:22:32 10° SW 09:23:03 10° WSW visible
23 Dec 10.6 09:10:19 10° SSW 09:12:02 12° SW 09:13:45 10° WSW visible
